TimeEST,TemperatureF,Dew PointF,Humidity,Sea Level PressureIn,VisibilityMPH,Wind Direction,Wind SpeedMPH,Gust SpeedMPH,PrecipitationIn,Events,Conditions,WindDirDegrees,DateUTC
12:51 AM,41.0,19.0,41,30.33,10.0,SSW,4.6,-,N/A,,Clear,210,2012-11-30 05:51:00
1:51 AM,37.0,19.9,50,30.34,10.0,Calm,Calm,-,N/A,,Clear,0,2012-11-30 06:51:00
2:51 AM,33.1,21.0,61,30.35,10.0,SSW,3.5,-,N/A,,Clear,200,2012-11-30 07:51:00
3:51 AM,36.0,21.9,57,30.34,10.0,Calm,Calm,-,N/A,,Clear,0,2012-11-30 08:51:00
4:51 AM,36.0,24.1,62,30.34,10.0,Calm,Calm,-,N/A,,Clear,0,2012-11-30 09:51:00
5:51 AM,37.0,26.1,65,30.35,10.0,SSW,6.9,-,N/A,,Clear,210,2012-11-30 10:51:00
6:51 AM,35.1,25.0,67,30.37,10.0,Calm,Calm,-,N/A,,Clear,0,2012-11-30 11:51:00
7:51 AM,34.0,26.1,73,30.38,10.0,Calm,Calm,-,N/A,,Clear,0,2012-11-30 12:51:00
8:51 AM,42.1,30.9,65,30.37,10.0,South,3.5,-,N/A,,Clear,180,2012-11-30 13:51:00
9:51 AM,48.0,28.9,48,30.37,10.0,SW,5.8,-,N/A,,Clear,230,2012-11-30 14:51:00
10:51 AM,48.9,28.0,44,30.37,10.0,SW,5.8,-,N/A,,Clear,220,2012-11-30 15:51:00
11:51 AM,51.1,28.9,43,30.34,10.0,West,4.6,-,N/A,,Clear,260,2012-11-30 16:51:00
12:51 PM,54.0,27.0,35,30.29,10.0,WSW,6.9,-,N/A,,Clear,240,2012-11-30 17:51:00
1:51 PM,55.9,25.0,30,30.28,10.0,Calm,Calm,-,N/A,,Clear,0,2012-11-30 18:51:00
2:51 PM,55.9,21.9,27,30.26,10.0,WSW,9.2,-,N/A,,Clear,240,2012-11-30 19:51:00
3:51 PM,55.0,23.0,29,30.25,10.0,South,4.6,-,N/A,,Clear,190,2012-11-30 20:51:00
4:51 PM,52.0,26.1,37,30.25,10.0,SSE,6.9,-,N/A,,Clear,160,2012-11-30 21:51:00
5:51 PM,48.0,26.1,42,30.26,10.0,SSE,4.6,-,N/A,,Scattered Clouds,150,2012-11-30 22:51:00
6:51 PM,46.0,26.1,46,30.29,10.0,South,5.8,-,N/A,,Partly Cloudy,170,2012-11-30 23:51:00
7:51 PM,46.0,26.1,46,30.31,10.0,South,3.5,-,N/A,,Mostly Cloudy,190,2012-12-01 00:51:00
8:51 PM,46.9,27.0,46,30.29,10.0,SSW,5.8,-,N/A,,Overcast,200,2012-12-01 01:51:00
9:51 PM,46.0,28.0,50,30.29,10.0,South,8.1,-,N/A,,Overcast,190,2012-12-01 02:51:00
10:51 PM,44.1,30.0,58,30.28,10.0,SSW,4.6,-,N/A,,Clear,200,2012-12-01 03:51:00
11:51 PM,44.1,30.9,60,30.29,10.0,SSW,3.5,-,N/A,,Clear,210,2012-12-01 04:51:00